Location: Unspecified
(0.0000°N, 0.0000°E)
Time: 09:00:04
(UTC+00:00)

deb r/b Ablestar - Pass Details

Date: 22 February 2026
Orbit: 902 x 2195 km, 67.6° (Epoch: 14 March)

Event Time Altitude Azimuth Distance (km) Brightness Sun altitude
Rises 04:46:17 0° 20° (NNE) 4,488 ? -21.4°
Reaches altitude 10° 04:50:29 10° 40° (NE) 3,756 ? -20.4°
Maximum altitude 04:56:06 17° 76° (ENE) 3,525 ? -19.0°
Drops below altitude 10° 05:02:25 10° 112° (ESE) 4,350 ? -17.5°
Sets 05:07:47 0° 129° (SE) 5,541 ? -16.2°
